Location: B�hl
(48.6968°N, 8.1352°E)
Time: 09:46:40
(UTC+00:00)

SL-4 R/B - Pass Details

Date: 08 March 2021
Orbit: 428 x 663 km, 51.6° (Epoch: 10 April)

Event Time Altitude Azimuth Distance (km) Brightness Sun altitude
Rises 19:17:06 0° 285° (WNW) 2,464 7.0 -19.6°
Reaches altitude 10° 19:19:48 10° 264° (W) 1,558 5.3 -20.0°
Maximum altitude 19:22:06 17° 223° (SW) 1,192 4.0 -20.4°
Enters shadow 19:23:22 14° 197° (SSW) 1,304 3.9 -20.6°
